Wetterdaten: Sonntag, 07.03.2010
Datum Zeit Temp. A. Feuchte A. Luftdruck Regen Wind Richtung Richtung Sonnenschein UV Solar Windben
07.03.2010 00:00 -4,8 C 86 % 1029,7 hPa 0,0 mm 0,0 km/h (0 Bft) N-NO 22 0 min 0 UV-I 0 W/m 4,8 km/h (1 Bft)
07.03.2010 00:10 -4,8 C 86 % 1030,7 hPa 0,0 mm 0,0 km/h (0 Bft) N-NO 22 0 min 0 UV-I 0 W/m 4,8 km/h (1 Bft)
07.03.2010 00:20 -5,0 C 86 % 1028,0 hPa 0,0 mm 0,0 km/h (0 Bft) N-NO 22 0 min 0 UV-I 0 W/m 4,8 km/h (1 Bft)
07.03.2010 00:30 -5,1 C 86 % 1030,0 hPa 0,0 mm 0,0 km/h (0 Bft) N-NO 22 0 min 0 UV-I 0 W/m 3,2 km/h (1 Bft)
07.03.2010 00:40 -5,2 C 86 % 1027,5 hPa 0,0 mm 1,6 km/h (1 Bft) N-NO 22 0 min 0 UV-I 0 W/m 4,8 km/h (1 Bft)
07.03.2010 00:50 -5,2 C 86 % 1030,8 hPa 0,0 mm 1,6 km/h (1 Bft) N-NO 22 0 min 0 UV-I 0 W/m 6,4 km/h (2 Bft)
07.03.2010 01:00 -5,3 C 86 % 1028,6 hPa 0,0 mm 0,0 km/h (0 Bft) N-NO 22 0 min 0 UV-I 0 W/m 4,8 km/h (1 Bft)
07.03.2010 01:10 -5,5 C 85 % 1030,0 hPa 0,0 mm 0,0 km/h (0 Bft) N-NO 22 0 min 0 UV-I 0 W/m 4,8 km/h (1 Bft)
07.03.2010 01:20 -5,7 C 86 % 1028,6 hPa 0,0 mm 0,0 km/h (0 Bft) N-NO 22 0 min 0 UV-I 0 W/m 1,6 km/h (1 Bft)
07.03.2010 01:30 -5,6 C 86 % 1031,6 hPa 0,0 mm 0,0 km/h (0 Bft) N-NO 22 0 min 0 UV-I 0 W/m 1,6 km/h (1 Bft)
07.03.2010 01:40 -5,7 C 85 % 1025,6 hPa 0,0 mm 0,0 km/h (0 Bft) N 0 0 min 0 UV-I 0 W/m 0,0 km/h (0 Bft)
07.03.2010 01:50 -5,8 C 85 % 1031,3 hPa 0,0 mm 0,0 km/h (0 Bft) N-NO 22 0 min 0 UV-I 0 W/m 1,6 km/h (1 Bft)
07.03.2010 02:00 -5,9 C 85 % 1031,8 hPa 0,0 mm 0,0 km/h (0 Bft) N 0 0 min 0 UV-I 0 W/m 0,0 km/h (0 Bft)
07.03.2010 02:10 -6,0 C 85 % 1029,1 hPa 0,0 mm 0,0 km/h (0 Bft) N-NO 22 0 min 0 UV-I 0 W/m 1,6 km/h (1 Bft)
07.03.2010 02:20 -6,1 C 85 % 1031,9 hPa 0,0 mm 0,0 km/h (0 Bft) N-NO 22 0 min 0 UV-I 0 W/m 1,6 km/h (1 Bft)
07.03.2010 02:30 -6,2 C 85 % 1029,2 hPa 0,0 mm 0,0 km/h (0 Bft) N-NO 22 0 min 0 UV-I 0 W/m 1,6 km/h (1 Bft)
07.03.2010 02:40 -6,3 C 85 % 1026,4 hPa 0,0 mm 0,0 km/h (0 Bft) N-NO 22 0 min 0 UV-I 0 W/m 1,6 km/h (1 Bft)
07.03.2010 02:50 -6,5 C 85 % 1029,2 hPa 0,0 mm 0,0 km/h (0 Bft) N 0 0 min 0 UV-I 0 W/m 0,0 km/h (0 Bft)
07.03.2010 03:00 -6,7 C 86 % 1032,1 hPa 0,0 mm 0,0 km/h (0 Bft) N 0 0 min 0 UV-I 0 W/m 0,0 km/h (0 Bft)
07.03.2010 03:10 -6,7 C 86 % 1031,7 hPa 0,0 mm 0,0 km/h (0 Bft) N 0 0 min 0 UV-I 0 W/m 0,0 km/h (0 Bft)
07.03.2010 03:20 -6,9 C 86 % 1032,2 hPa 0,0 mm 0,0 km/h (0 Bft) N 0 0 min 0 UV-I 0 W/m 0,0 km/h (0 Bft)
07.03.2010 03:30 -7,2 C 87 % 1032,1 hPa 0,0 mm 0,0 km/h (0 Bft) N 0 0 min 0 UV-I 0 W/m 0,0 km/h (0 Bft)
07.03.2010 03:40 -6,9 C 87 % 1031,7 hPa 0,0 mm 0,0 km/h (0 Bft) N 0 0 min 0 UV-I 0 W/m 0,0 km/h (0 Bft)
07.03.2010 03:50 -6,9 C 87 % 1032,2 hPa 0,0 mm 0,0 km/h (0 Bft) N 0 0 min 0 UV-I 0 W/m 0,0 km/h (0 Bft)
07.03.2010 04:00 -7,2 C 88 % 1032,2 hPa 0,0 mm 0,0 km/h (0 Bft) N-NO 22 0 min 0 UV-I 0 W/m 1,6 km/h (1 Bft)
07.03.2010 04:10 -7,4 C 88 % 1032,3 hPa 0,0 mm 0,0 km/h (0 Bft) N 0 0 min 0 UV-I 0 W/m 0,0 km/h (0 Bft)
07.03.2010 04:20 -7,7 C 87 % 1032,2 hPa 0,0 mm 0,0 km/h (0 Bft) N-NO 22 0 min 0 UV-I 0 W/m 1,6 km/h (1 Bft)
07.03.2010 04:30 -7,9 C 88 % 1032,3 hPa 0,0 mm 0,0 km/h (0 Bft) N 0 0 min 0 UV-I 0 W/m 0,0 km/h (0 Bft)
07.03.2010 04:40 -8,1 C 88 % 1032,3 hPa 0,0 mm 0,0 km/h (0 Bft) N 0 0 min 0 UV-I 0 W/m 0,0 km/h (0 Bft)
07.03.2010 04:50 -8,2 C 88 % 1032,3 hPa 0,0 mm 0,0 km/h (0 Bft) N 0 0 min 0 UV-I 0 W/m 0,0 km/h (0 Bft)
07.03.2010 05:00 -8,3 C 88 % 1032,4 hPa 0,0 mm 0,0 km/h (0 Bft) N 0 0 min 0 UV-I 0 W/m 0,0 km/h (0 Bft)
07.03.2010 05:10 -8,3 C 88 % 1032,6 hPa 0,0 mm 0,0 km/h (0 Bft) N 0 0 min 0 UV-I 0 W/m 0,0 km/h (0 Bft)
07.03.2010 05:20 -8,2 C 88 % 1032,6 hPa 0,0 mm 0,0 km/h (0 Bft) N 0 0 min 0 UV-I 0 W/m 0,0 km/h (0 Bft)
07.03.2010 05:30 -8,4 C 88 % 1032,8 hPa 0,0 mm 0,0 km/h (0 Bft) N 0 0 min 0 UV-I 0 W/m 0,0 km/h (0 Bft)
07.03.2010 05:40 -8,5 C 88 % 1032,8 hPa 0,0 mm 0,0 km/h (0 Bft) N 0 0 min 0 UV-I 0 W/m 0,0 km/h (0 Bft)
07.03.2010 05:50 -8,6 C 88 % 1032,9 hPa 0,0 mm 0,0 km/h (0 Bft) N 0 0 min 0 UV-I 0 W/m 0,0 km/h (0 Bft)
07.03.2010 06:00 -8,5 C 88 % 1033,1 hPa 0,0 mm 0,0 km/h (0 Bft) N 0 0 min 0 UV-I 0 W/m 0,0 km/h (0 Bft)
07.03.2010 06:10 -8,5 C 89 % 1033,2 hPa 0,0 mm 0,0 km/h (0 Bft) N-NO 22 0 min 0 UV-I 0 W/m 1,6 km/h (1 Bft)
07.03.2010 06:20 -8,7 C 88 % 1033,1 hPa 0,0 mm 0,0 km/h (0 Bft) N-NO 22 0 min 0 UV-I 0 W/m 1,6 km/h (1 Bft)
07.03.2010 06:30 -8,9 C 89 % 1033,2 hPa 0,0 mm 0,0 km/h (0 Bft) N 0 0 min 0 UV-I 0 W/m 0,0 km/h (0 Bft)
07.03.2010 06:40 -9,1 C 88 % 1033,3 hPa 0,0 mm 0,0 km/h (0 Bft) N 0 0 min 0 UV-I 0 W/m 0,0 km/h (0 Bft)
07.03.2010 06:50 -9,4 C 88 % 1033,5 hPa 0,0 mm 0,0 km/h (0 Bft) N 0 0 min 0 UV-I 0 W/m 0,0 km/h (0 Bft)
07.03.2010 07:00 -9,7 C 88 % 1033,5 hPa 0,0 mm 0,0 km/h (0 Bft) N 0 0 min 0 UV-I 0 W/m 0,0 km/h (0 Bft)
07.03.2010 07:10 -9,8 C 88 % 1033,6 hPa 0,0 mm 0,0 km/h (0 Bft) N-NO 22 0 min 0 UV-I 7 W/m 1,6 km/h (1 Bft)
07.03.2010 07:20 -9,7 C 88 % 1033,7 hPa 0,0 mm 0,0 km/h (0 Bft) N 0 0 min 0 UV-I 12 W/m 0,0 km/h (0 Bft)
07.03.2010 07:30 -9,8 C 88 % 1033,7 hPa 0,0 mm 0,0 km/h (0 Bft) N-NO 22 0 min 0 UV-I 30 W/m 1,6 km/h (1 Bft)
07.03.2010 07:40 -9,6 C 88 % 1033,7 hPa 0,0 mm 0,0 km/h (0 Bft) N 0 10 min 0 UV-I 54 W/m 0,0 km/h (0 Bft)
07.03.2010 07:50 -9,3 C 88 % 1033,8 hPa 0,0 mm 0,0 km/h (0 Bft) N 0 10 min 0 UV-I 69 W/m 0,0 km/h (0 Bft)
07.03.2010 08:00 -9,0 C 88 % 1033,9 hPa 0,0 mm 0,0 km/h (0 Bft) N-NO 25 10 min 0 UV-I 93 W/m 0,0 km/h (0 Bft)
07.03.2010 08:10 -8,9 C 88 % 1033,9 hPa 0,0 mm 0,0 km/h (0 Bft) N-NO 22 10 min 0 UV-I 127 W/m 1,6 km/h (1 Bft)
07.03.2010 08:20 -8,7 C 87 % 1033,9 hPa 0,0 mm 0,0 km/h (0 Bft) N 0 10 min 1 UV-I 153 W/m 0,0 km/h (0 Bft)
07.03.2010 08:30 -8,3 C 87 % 1033,9 hPa 0,0 mm 0,0 km/h (0 Bft) N-NO 22 10 min 1 UV-I 181 W/m 1,6 km/h (1 Bft)
07.03.2010 08:40 -7,9 C 86 % 1034,0 hPa 0,0 mm 0,0 km/h (0 Bft) N-NO 22 10 min 1 UV-I 207 W/m 3,2 km/h (1 Bft)
07.03.2010 08:50 -7,7 C 86 % 1034,1 hPa 0,0 mm 0,0 km/h (0 Bft) N-NO 22 10 min 1 UV-I 229 W/m 3,2 km/h (1 Bft)
07.03.2010 09:00 -7,1 C 86 % 1034,1 hPa 0,3 mm 0,0 km/h (0 Bft) N-NO 22 10 min 1 UV-I 255 W/m 1,6 km/h (1 Bft)
07.03.2010 09:10 -6,7 C 84 % 1034,1 hPa 0,0 mm 0,0 km/h (0 Bft) N 0 10 min 1 UV-I 301 W/m 0,0 km/h (0 Bft)
07.03.2010 09:20 -6,3 C 83 % 1034,2 hPa 0,0 mm 0,0 km/h (0 Bft) N-NO 22 10 min 1 UV-I 362 W/m 1,6 km/h (1 Bft)
07.03.2010 09:30 -5,9 C 83 % 1034,2 hPa 0,0 mm 0,0 km/h (0 Bft) N-NO 22 10 min 1 UV-I 369 W/m 3,2 km/h (1 Bft)
07.03.2010 09:40 -5,4 C 82 % 1034,2 hPa 0,0 mm 0,0 km/h (0 Bft) N-NO 22 10 min 1 UV-I 387 W/m 3,2 km/h (1 Bft)
07.03.2010 09:50 -4,9 C 82 % 1034,2 hPa 0,0 mm 0,0 km/h (0 Bft) N-NO 22 10 min 1 UV-I 404 W/m 3,2 km/h (1 Bft)
07.03.2010 10:00 -4,6 C 82 % 1034,2 hPa 0,0 mm 0,0 km/h (0 Bft) N-NO 22 10 min 2 UV-I 424 W/m 3,2 km/h (1 Bft)
07.03.2010 10:10 -4,1 C 81 % 1034,2 hPa 0,0 mm 0,0 km/h (0 Bft) N-NO 22 10 min 2 UV-I 454 W/m 1,6 km/h (1 Bft)
07.03.2010 10:20 -4,0 C 82 % 1034,3 hPa 0,0 mm 0,0 km/h (0 Bft) N-NO 22 10 min 2 UV-I 483 W/m 4,8 km/h (1 Bft)
07.03.2010 10:30 -3,5 C 80 % 1034,2 hPa 0,3 mm 0,0 km/h (0 Bft) N-NO 22 10 min 2 UV-I 508 W/m 3,2 km/h (1 Bft)
07.03.2010 10:40 -3,2 C 78 % 1034,3 hPa 0,0 mm 0,0 km/h (0 Bft) N-NO 22 10 min 2 UV-I 526 W/m 1,6 km/h (1 Bft)
07.03.2010 10:50 -2,9 C 79 % 1034,4 hPa 0,3 mm 0,0 km/h (0 Bft) N-NO 22 10 min 2 UV-I 543 W/m 4,8 km/h (1 Bft)
07.03.2010 11:00 -2,6 C 78 % 1034,3 hPa 0,0 mm 0,0 km/h (0 Bft) N-NO 22 10 min 2 UV-I 561 W/m 3,2 km/h (1 Bft)
07.03.2010 11:10 -2,2 C 75 % 1034,4 hPa 0,0 mm 0,0 km/h (0 Bft) N-NO 22 10 min 2 UV-I 575 W/m 4,8 km/h (1 Bft)
07.03.2010 11:20 -1,9 C 76 % 1034,4 hPa 0,0 mm 1,6 km/h (1 Bft) N-NO 22 10 min 2 UV-I 591 W/m 8,0 km/h (2 Bft)
07.03.2010 11:30 -1,7 C 74 % 1034,3 hPa 0,3 mm 1,6 km/h (1 Bft) N-NO 22 10 min 2 UV-I 603 W/m 4,8 km/h (1 Bft)
07.03.2010 11:40 -1,6 C 73 % 1034,2 hPa 0,0 mm 1,6 km/h (1 Bft) N 360 10 min 2 UV-I 612 W/m 6,4 km/h (2 Bft)
07.03.2010 11:50 -1,1 C 73 % 1034,2 hPa 0,0 mm 0,0 km/h (0 Bft) N 360 10 min 3 UV-I 619 W/m 4,8 km/h (1 Bft)
07.03.2010 12:00 -0,8 C 72 % 1034,1 hPa 0,0 mm 1,6 km/h (1 Bft) NW 315 10 min 3 UV-I 636 W/m 6,4 km/h (2 Bft)
07.03.2010 12:10 -0,6 C 72 % 1034,1 hPa 0,3 mm 1,6 km/h (1 Bft) NW 315 10 min 3 UV-I 642 W/m 6,4 km/h (2 Bft)
07.03.2010 12:20 -0,5 C 71 % 1034,0 hPa 0,0 mm 1,6 km/h (1 Bft) NW 315 10 min 3 UV-I 650 W/m 6,4 km/h (2 Bft)
07.03.2010 12:30 -0,5 C 71 % 1033,9 hPa 0,0 mm 3,2 km/h (1 Bft) NW 315 10 min 3 UV-I 659 W/m 8,0 km/h (2 Bft)
07.03.2010 12:40 -0,2 C 70 % 1033,7 hPa 0,0 mm 3,2 km/h (1 Bft) W-NW 292 10 min 3 UV-I 657 W/m 8,0 km/h (2 Bft)
07.03.2010 12:50 0,3 C 68 % 1033,7 hPa 0,3 mm 1,6 km/h (1 Bft) W 270 10 min 3 UV-I 666 W/m 4,8 km/h (1 Bft)
07.03.2010 13:00 0,6 C 69 % 1033,6 hPa 0,0 mm 0,0 km/h (0 Bft) W-NW 292 10 min 3 UV-I 671 W/m 6,4 km/h (2 Bft)
07.03.2010 13:10 0,8 C 66 % 1033,5 hPa 0,0 mm 1,6 km/h (1 Bft) W-NW 292 10 min 3 UV-I 666 W/m 6,4 km/h (2 Bft)
07.03.2010 13:20 0,8 C 65 % 1033,4 hPa 0,0 mm 1,6 km/h (1 Bft) NW 315 10 min 3 UV-I 640 W/m 6,4 km/h (2 Bft)
07.03.2010 13:30 1,4 C 63 % 1033,3 hPa 0,3 mm 1,6 km/h (1 Bft) N-NW 337 10 min 3 UV-I 638 W/m 8,0 km/h (2 Bft)
07.03.2010 13:40 1,6 C 66 % 1033,2 hPa 0,0 mm 1,6 km/h (1 Bft) N-NW 337 10 min 2 UV-I 631 W/m 8,0 km/h (2 Bft)
07.03.2010 13:50 1,6 C 60 % 1033,2 hPa 0,0 mm 3,2 km/h (1 Bft) N-NW 337 10 min 2 UV-I 621 W/m 8,0 km/h (2 Bft)
07.03.2010 14:00 2,1 C 55 % 1033,2 hPa 0,0 mm 4,8 km/h (1 Bft) O-NO 67 10 min 2 UV-I 619 W/m 11,3 km/h (2 Bft)
07.03.2010 14:10 2,2 C 51 % 1033,0 hPa 0,0 mm 4,8 km/h (1 Bft) O-NO 67 10 min 2 UV-I 603 W/m 11,3 km/h (2 Bft)
07.03.2010 14:20 2,2 C 53 % 1032,9 hPa 0,0 mm 4,8 km/h (1 Bft) O 90 10 min 2 UV-I 589 W/m 16,1 km/h (3 Bft)
07.03.2010 14:30 2,1 C 52 % 1032,8 hPa 0,3 mm 3,2 km/h (1 Bft) NO 45 10 min 2 UV-I 577 W/m 9,7 km/h (2 Bft)
07.03.2010 14:40 2,3 C 53 % 1032,8 hPa 0,0 mm 4,8 km/h (1 Bft) O 90 10 min 2 UV-I 563 W/m 11,3 km/h (2 Bft)
07.03.2010 14:50 2,3 C 50 % 1032,6 hPa 0,0 mm 4,8 km/h (1 Bft) O 90 10 min 2 UV-I 543 W/m 11,3 km/h (2 Bft)
07.03.2010 15:00 2,2 C 51 % 1032,6 hPa 0,0 mm 4,8 km/h (1 Bft) O 90 10 min 2 UV-I 526 W/m 14,5 km/h (3 Bft)
07.03.2010 15:10 2,2 C 51 % 1032,6 hPa 0,0 mm 4,8 km/h (1 Bft) O-SO 112 10 min 2 UV-I 504 W/m 14,5 km/h (3 Bft)
07.03.2010 15:20 2,4 C 51 % 1032,6 hPa 0,0 mm 4,8 km/h (1 Bft) O 90 10 min 1 UV-I 483 W/m 14,5 km/h (3 Bft)
07.03.2010 15:30 2,2 C 50 % 1032,5 hPa 0,0 mm 4,8 km/h (1 Bft) O 90 10 min 1 UV-I 464 W/m 14,5 km/h (3 Bft)
07.03.2010 15:40 2,3 C 50 % 1032,4 hPa 0,0 mm 1,6 km/h (1 Bft) O 90 10 min 1 UV-I 436 W/m 6,4 km/h (2 Bft)
07.03.2010 15:50 2,4 C 52 % 1032,3 hPa 0,0 mm 3,2 km/h (1 Bft) O-NO 67 10 min 1 UV-I 413 W/m 19,3 km/h (3 Bft)
07.03.2010 16:00 2,5 C 52 % 1032,3 hPa 0,0 mm 4,1 km/h (1 Bft) N-NO 17 10 min 1 UV-I 364 W/m 9,7 km/h (2 Bft)
07.03.2010 16:10 2,2 C 49 % 1032,2 hPa 0,0 mm 4,8 km/h (1 Bft) N-NO 22 10 min 1 UV-I 360 W/m 11,3 km/h (2 Bft)
07.03.2010 16:20 2,2 C 50 % 1032,1 hPa 0,0 mm 3,2 km/h (1 Bft) N-NO 22 10 min 1 UV-I 334 W/m 9,7 km/h (2 Bft)
07.03.2010 16:30 2,0 C 46 % 1032,0 hPa 0,0 mm 3,2 km/h (1 Bft) N-NO 22 10 min 1 UV-I 306 W/m 14,5 km/h (3 Bft)
07.03.2010 16:40 1,9 C 46 % 1031,9 hPa 0,0 mm 3,2 km/h (1 Bft) N-NO 22 10 min 1 UV-I 281 W/m 11,3 km/h (2 Bft)
07.03.2010 16:50 1,7 C 45 % 1031,8 hPa 0,0 mm 3,2 km/h (1 Bft) N 360 10 min 1 UV-I 251 W/m 11,3 km/h (2 Bft)
07.03.2010 17:00 1,7 C 45 % 1031,8 hPa 0,0 mm 4,8 km/h (1 Bft) N 360 10 min 1 UV-I 232 W/m 16,1 km/h (3 Bft)
07.03.2010 17:10 1,5 C 46 % 1031,7 hPa 0,0 mm 3,2 km/h (1 Bft) O-NO 67 10 min 0 UV-I 202 W/m 16,1 km/h (3 Bft)
07.03.2010 17:20 1,1 C 49 % 1031,7 hPa 0,0 mm 3,2 km/h (1 Bft) NO 45 10 min 0 UV-I 141 W/m 11,3 km/h (2 Bft)
07.03.2010 17:30 0,8 C 50 % 1031,7 hPa 0,0 mm 1,6 km/h (1 Bft) N-NO 22 10 min 0 UV-I 118 W/m 8,0 km/h (2 Bft)
07.03.2010 17:40 0,4 C 52 % 1031,7 hPa 0,0 mm 1,6 km/h (1 Bft) O-NO 67 10 min 0 UV-I 76 W/m 6,4 km/h (2 Bft)
07.03.2010 17:50 0,1 C 54 % 1031,8 hPa 0,0 mm 1,6 km/h (1 Bft) O-NO 67 10 min 0 UV-I 47 W/m 6,4 km/h (2 Bft)
07.03.2010 18:00 -0,1 C 52 % 1031,8 hPa 0,0 mm 3,2 km/h (1 Bft) N-NO 22 10 min 0 UV-I 23 W/m 9,7 km/h (2 Bft)
07.03.2010 18:10 -0,3 C 53 % 1031,9 hPa 0,0 mm 3,2 km/h (1 Bft) N-NO 22 0 min 0 UV-I 12 W/m 8,0 km/h (2 Bft)
07.03.2010 18:20 -0,6 C 55 % 1031,8 hPa 0,0 mm 1,6 km/h (1 Bft) N 360 0 min 0 UV-I 7 W/m 6,4 km/h (2 Bft)
07.03.2010 18:30 -0,9 C 56 % 1031,9 hPa 0,0 mm 1,6 km/h (1 Bft) N 360 0 min 0 UV-I 0 W/m 6,4 km/h (2 Bft)
07.03.2010 18:40 -1,2 C 58 % 1031,9 hPa 0,0 mm 1,6 km/h (1 Bft) N 360 0 min 0 UV-I 0 W/m 6,4 km/h (2 Bft)
07.03.2010 18:50 -1,4 C 58 % 1031,9 hPa 0,0 mm 1,6 km/h (1 Bft) N-NO 22 0 min 0 UV-I 0 W/m 9,7 km/h (2 Bft)
07.03.2010 19:00 -1,6 C 59 % 1031,9 hPa 0,0 mm 3,2 km/h (1 Bft) N-NO 22 0 min 0 UV-I 0 W/m 8,0 km/h (2 Bft)
07.03.2010 19:10 -1,8 C 60 % 1031,8 hPa 0,0 mm 1,6 km/h (1 Bft) N 360 0 min 0 UV-I 0 W/m 8,0 km/h (2 Bft)
07.03.2010 19:20 -2,0 C 60 % 1031,7 hPa 0,0 mm 1,6 km/h (1 Bft) N 360 0 min 0 UV-I 0 W/m 8,0 km/h (2 Bft)
07.03.2010 19:30 -2,2 C 61 % 1031,8 hPa 0,0 mm 0,0 km/h (0 Bft) N 360 0 min 0 UV-I 0 W/m 4,8 km/h (1 Bft)
07.03.2010 19:40 -2,3 C 61 % 1031,8 hPa 0,0 mm 1,6 km/h (1 Bft) N 360 0 min 0 UV-I 0 W/m 6,4 km/h (2 Bft)
07.03.2010 19:50 -2,5 C 61 % 1031,8 hPa 0,0 mm 0,0 km/h (0 Bft) N 360 0 min 0 UV-I 0 W/m 6,4 km/h (2 Bft)
07.03.2010 20:00 -2,6 C 61 % 1031,8 hPa 0,0 mm 0,0 km/h (0 Bft) N 360 0 min 0 UV-I 0 W/m 3,2 km/h (1 Bft)
07.03.2010 20:10 -2,7 C 62 % 1031,8 hPa 0,0 mm 0,0 km/h (0 Bft) N 360 0 min 0 UV-I 0 W/m 3,2 km/h (1 Bft)
07.03.2010 20:20 -2,9 C 63 % 1031,6 hPa 0,0 mm 0,0 km/h (0 Bft) N 360 0 min 0 UV-I 0 W/m 1,6 km/h (1 Bft)
07.03.2010 20:30 -3,3 C 65 % 1031,7 hPa 0,0 mm 0,0 km/h (0 Bft) N 360 0 min 0 UV-I 0 W/m 1,6 km/h (1 Bft)
07.03.2010 20:40 -3,7 C 68 % 1031,7 hPa 0,0 mm 0,0 km/h (0 Bft) N 0 0 min 0 UV-I 0 W/m 0,0 km/h (0 Bft)
07.03.2010 20:50 -3,9 C 69 % 1031,6 hPa 0,0 mm 0,0 km/h (0 Bft) N 0 0 min 0 UV-I 0 W/m 0,0 km/h (0 Bft)
07.03.2010 21:00 -4,3 C 70 % 1031,6 hPa 0,0 mm 0,0 km/h (0 Bft) N 360 0 min 0 UV-I 0 W/m 1,6 km/h (1 Bft)
07.03.2010 21:10 -4,4 C 70 % 1031,4 hPa 0,0 mm 0,0 km/h (0 Bft) N 0 0 min 0 UV-I 0 W/m 0,0 km/h (0 Bft)
07.03.2010 21:20 -4,4 C 72 % 1031,4 hPa 0,0 mm 0,0 km/h (0 Bft) N 0 0 min 0 UV-I 0 W/m 0,0 km/h (0 Bft)
07.03.2010 21:30 -4,5 C 73 % 1031,4 hPa 0,0 mm 0,0 km/h (0 Bft) N 0 0 min 0 UV-I 0 W/m 0,0 km/h (0 Bft)
07.03.2010 21:40 -4,6 C 73 % 1031,4 hPa 0,0 mm 0,0 km/h (0 Bft) N 0 0 min 0 UV-I 0 W/m 0,0 km/h (0 Bft)
07.03.2010 21:50 -4,9 C 74 % 1031,4 hPa 0,0 mm 0,0 km/h (0 Bft) N 360 0 min 0 UV-I 0 W/m 1,6 km/h (1 Bft)
07.03.2010 22:00 -5,3 C 75 % 1031,3 hPa 0,0 mm 0,0 km/h (0 Bft) N 0 0 min 0 UV-I 0 W/m 0,0 km/h (0 Bft)
07.03.2010 22:10 -5,6 C 76 % 1031,3 hPa 0,0 mm 0,0 km/h (0 Bft) N 360 0 min 0 UV-I 0 W/m 1,6 km/h (1 Bft)
07.03.2010 22:20 -5,8 C 76 % 1031,3 hPa 0,0 mm 0,0 km/h (0 Bft) N 0 0 min 0 UV-I 0 W/m 0,0 km/h (0 Bft)
07.03.2010 22:30 -5,9 C 77 % 1031,2 hPa 0,0 mm 0,0 km/h (0 Bft) N 360 0 min 0 UV-I 0 W/m 1,6 km/h (1 Bft)
07.03.2010 22:40 -6,2 C 77 % 1031,2 hPa 0,0 mm 0,0 km/h (0 Bft) N 360 0 min 0 UV-I 0 W/m 3,2 km/h (1 Bft)
07.03.2010 22:50 -6,3 C 76 % 1031,3 hPa 0,0 mm 0,0 km/h (0 Bft) N 360 0 min 0 UV-I 0 W/m 1,6 km/h (1 Bft)
07.03.2010 23:00 -6,3 C 75 % 1031,2 hPa 0,0 mm 0,0 km/h (0 Bft) N 0 0 min 0 UV-I 0 W/m 0,0 km/h (0 Bft)
07.03.2010 23:10 -6,4 C 75 % 1031,1 hPa 0,0 mm 0,0 km/h (0 Bft) N 360 0 min 0 UV-I 0 W/m 1,6 km/h (1 Bft)
07.03.2010 23:20 -6,6 C 75 % 1031,1 hPa 0,0 mm 0,0 km/h (0 Bft) N 360 0 min 0 UV-I 0 W/m 1,6 km/h (1 Bft)
07.03.2010 23:30 -6,8 C 76 % 1031,0 hPa 0,0 mm 0,0 km/h (0 Bft) N 360 0 min 0 UV-I 0 W/m 1,6 km/h (1 Bft)
07.03.2010 23:40 -6,9 C 76 % 1031,0 hPa 0,0 mm 0,0 km/h (0 Bft) N 360 0 min 0 UV-I 0 W/m 1,6 km/h (1 Bft)
07.03.2010 23:50 -7,0 C 77 % 1030,9 hPa 0,0 mm 0,0 km/h (0 Bft) N 360 0 min 0 UV-I 0 W/m 1,6 km/h (1 Bft)
_ Min-Zeit 07:00 16:50 01:40 - 00:00 - - - - - 01:40
Minimum _ -9,8 C 45 % 1025,6 hPa - 0,0 km/h (0 Bft) - - - - - 0,0 km/h (0 Bft)
_ Max-Zeit 14:40 06:10 10:50 09:00 14:00 - - 07:40 12:00 13:00 15:50
Maximum _ 2,6 C 89 % 1034,4 hPa 0,3 mm 4,8 km/h
O-NO (1 Bft)
- - 10 min 3 UV-I 671 W/m 19,3 km/h
N-NW (3 Bft)
Durchschnitt _ -3,9 C 73 % 1032,3 hPa #2,0 mm 1,0 km/h (0 Bft) N-NO - #10:30 h 2 UV-I 391 W/m 4,3 km/h (1 Bft)